Powrót do katalogu

STARLINK-32856

AktywnyŁącznośćVLEO
NORAD 62819·PAYLOAD·🇺🇸 United States

Wystrzelony Jan 24, 2025 z Vandenberg Space Force Base

Loading…

Następne Przeloty (najbliższe 24 godziny)

TLE

ŚwieżeSource: CelesTrak SupGP

Epoka: Sep 14, 2026, 22:30 UTC

1 62819C 25018P   26257.93798611 -.00051849  00000+0 -15319-2 0  2574
2 62819  53.1560 147.6151 0001343  84.3144 314.0960 15.34416652    19

Śledź STARLINK-32856 w czasie rzeczywistym z AllMySat

Download on the App Store